Regional Weather Roundup
Issued by NWS

Home | Current Version | Previous Version | Graphics & Text | Print | Product List | Glossary On
Versions: 1 2 3 4 5 6 7 8 9 10 11 12 13 14 15 16 17 18 19 20 21 22 23 24 25 26 27 28 29 30 31 32 33 34 35 36 37 38 39 40 41 42 43 44 45 46 47 48 49 50
000
ASUS43 KLOT 071708
RWRIL

ILLINOIS REGIONAL WEATHER ROUNDUP
NATIONAL WEATHER SERVICE CHICAGO/ROMEOVILLE IL
1100 AM CST SUN FEB 07 2016

NOTE: "FAIR" INDICATES FEW OR NO CLOUDS BELOW 12,000 FEET WITH NO
SIGNIFICANT WEATHER AND/OR OBSTRUCTIONS TO VISIBILITY.

* THESE STATIONS ARE NOT UNDER NWS QUALITY CONTROL. THEY ALSO MAY NOT
  REPORT WEATHER SUCH AS PRECIPITATION OR FOG.

ILZ001-002-007-009-015-016-024-071800-
NORTHWEST ILLINOIS

CITY           SKY/WX    TMP DP  RH WIND       PRES   REMARKS
MOLINE         CLOUDY    41  29  62 MISG      29.81S
STERLING*      CLOUDY    39  30  70 W15       29.76F WCI  31
SAVANNA*       MOSUNNY   41  31  68 W7        29.78S
$$

ILZ003-004-008-010-011-017-018-071800-
NORTH CENTRAL ILLINOIS

CITY           SKY/WX    TMP DP  RH WIND       PRES   REMARKS
ROCKFORD       PTSUNNY   40  30  67 SW14      29.77F
FREEPORT*      MOSUNNY   39  31  74 W13G20    29.76S WCI  31
ROCHELLE*      CLOUDY    38  32  79 SW15      29.78F WCI  29
DE KALB*       CLOUDY    39  31  73 SW16      29.77F WCI  30
$$

ILZ005-006-012>014-019>023-071800-
NORTHEAST ILLINOIS

CITY           SKY/WX    TMP DP  RH WIND       PRES   REMARKS
CHICAGO-OHARE  PTSUNNY   41  29  62 W17G26    29.77F
CHICAGO-MIDWAY CLOUDY    45  29  53 W14       29.79F
AURORA         CLOUDY    41  30  65 SW17G24   29.79F
LANSING*       MOSUNNY   43  31  62 SW23      29.82F
JOLIET*        CLOUDY    44  32  63 SW15G22   29.81F
WAUKEGAN       CLOUDY    41  30  65 SW21G31   29.73F
DUPAGE AIRPORT MOSUNNY   41  29  62 SW17G24   29.77F
KANKAKEE*      CLOUDY    45  32  61 SW17G25   29.85F
WHEELING       CLOUDY    42  29  59 SW17G26   29.77F
MORRIS*          N/A     42  31  65 SW16G23   29.78S
ROMEOVILLE*    CLOUDY    42  30  64 SW18      29.80S
NORTHERLY ISL    N/A     43  28  56 W12         N/A
$$

LMZ740>746-071800-
SOUTHERN LAKE MICHIGAN

STATION/POSITION SKY/WX   TEMP    WIND        PRES    VSBY  WAVE
                          AIR SEA DIR/SP/G                  HT/PER
                          (F)     (DEG/KT/KT) (MB)    (MI)  (FT/S)
HARRISON CRIB              42     230/ 19/ 23   N/A
BURNHAM HARBOR             43     270/  7/ 18   N/A
CALUMET HARBOR                    210/ 12/ 20   N/A
BURNS HARBOR               43     220/ 23     1010.5F
MICHIGAN CITY              42     190/ 21/ 24   N/A
$$

ILZ025>027-034>036-040-047-049-050-058-095>099-071800-
WEST-CENTRAL ILLINOIS

CITY           SKY/WX    TMP DP  RH WIND       PRES   REMARKS
QUINCY         MOSUNNY   44  29  55 W16G24    29.90R
GALESBURG*     PTSUNNY   42  31  65 W14       29.84S
MACOMB*        MOSUNNY   44  32  64 W21       29.88S
JACKSONVILLE*  SUNNY     48  31  52 SW21G26   29.90R
PITTSFIELD*    PTSUNNY   46  31  55 W20G26    29.92R
$$

ILZ028>032-037-038-041>044-048-051>054-059>061-071800-
CENTRAL ILLINOIS

CITY           SKY/WX    TMP DP  RH WIND       PRES   REMARKS
PONTIAC        CLOUDY    44  34  67 SW21      29.84F
BLOOMINGTON    MOSUNNY   45  32  60 SW22G29   29.85F
DECATUR        SUNNY     48  29  47 W24G31    29.90F
PEORIA         MOSUNNY   45  29  53 W14G24    29.85F
LACON*         MOSUNNY   44  28  54 W13G22    29.83S
LINCOLN*       SUNNY     47  33  57 SW10G23   29.87F
SPRINGFIELD    SUNNY     48  31  51 W18G24    29.89F
TAYLORVILLE    SUNNY     46  32  57 SW22      29.91F
$$

ILZ033-039-045-046-055>057-062-063-071800-
EAST-CENTRAL ILLINOIS

CITY           SKY/WX    TMP DP  RH WIND       PRES   REMARKS
CHAMPAIGN      SUNNY     46  32  58 SW20G29   29.90F
RANTOUL*       SUNNY     46  34  63 SW17G26   29.88F
MATTOON        MOSUNNY   47  29  49 SW15G24   29.93F
PARIS*         SUNNY     47  34  59 SW21      29.95F
$$

ILZ079-100>102-071800-
SOUTHWEST ILLINOIS

CITY           SKY/WX    TMP DP  RH WIND       PRES   REMARKS
ALTON          PTSUNNY   50  28  43 W17G28    29.95F
BELLEVILLE     SUNNY     53  28  38 SW14      29.96F
CAHOKIA*       SUNNY     53  25  33 SW17G26   29.96F
SPARTA*        MOSUNNY   51  30  44 SW13G20   30.01F
$$

ILZ064>066-069>071-074>076-080>082-084>086-088>090-092>094-071800-
SOUTH-CENTRAL ILLINOIS

CITY           SKY/WX    TMP DP  RH WIND       PRES   REMARKS
CARBONDALE     SUNNY     51  28  41 SW17G26   30.04F
CAIRO*         SUNNY     50  32  49 S15G22    30.10F
EFFINGHAM*     SUNNY     51  32  49 S15       29.98F
MARION         PTSUNNY   54  30  40 SW17G25   30.06F
MT. VERNON     CLOUDY    50  30  46 S17G24    30.02F
CENTRALIA*     SUNNY     51  32  49 SW15      29.99F
SALEM*         SUNNY     52  30  43 SW15G23   29.99F
METROPOLIS*    SUNNY     53  30  40 SW13      30.10F
$$

ILZ067-068-072-073-078-083-087-091-071800-
SOUTHEAST ILLINOIS

CITY           SKY/WX    TMP DP  RH WIND       PRES   REMARKS
LAWRENCEVILLE  CLOUDY    51  31  46 SW20      30.03F
FLORA*         SUNNY     53  32  45 SW15G23   30.00F
FAIRFIELD*     CLOUDY    51  32  48 S17       30.01F
HARRISBURG*    CLOUDY    48  29  47 SW14      30.07F
ROBINSON*      SUNNY     49  31  51 SW15G24   30.02F
CARMI*         SUNNY     51  32  48 SW15G21   30.05F
$$

ABBREVIATIONS USED IN REMARKS
   TC - TEMPERATURE IN CELSIUS
  WCI - WIND CHILL INDEX
   HX - HEAT INDEX
  VSB - VISIBILITY
$$





USA.gov is the U.S. government's official web portal to all federal, state and local government web resources and services.